Tracking 18840 objects as of 20-November-2017
HD Live streaming from Space Station
objects crossing your sky now

DYNAMICS EXPLORER 1

Track DYNAMICS EXPLORER 1 now!
10-day predictions
DYNAMICS EXPLORER 1 is classified as:


NORAD ID: 12624
Int'l Code: 1981-070A
Perigee: 481.2 km
Apogee: 23,252.4 km
Inclination: 90.0 °
Period: 408.5 minutes
Semi major axis: 18237 km
RCS: 1.6586 m2 (large)
Launch date: August 3, 1981
Source: United States (US)
Launch site: AIR FORCE WESTERN TEST RANGE (AFWTR)
aabbcc
Your satellite tracking list
Your tracking list is empty




NASA's NSSDC Master Catalog

Two Line Element Set (TLE):
1 12624U 81070A   17323.48816343 +.00000031 +00000-0 +10509-3 0  9996
2 12624 090.0397 034.0458 6242864 172.4165 205.4973 03.52487295614755
Source of the keplerian elements: AFSPC